[[{"header":{"parameterUnit":"m.s-1","parameterCategory":1,"la1":30.2991,"la2":30.254,"lo1":-89.0895,"lo2":-89.0444,"dy":0.0017,"dx":0.0017,"nx":28,"ny":28,"refTime":"2025-07-13T09:00:00:Z","depth":0,"parameterNumber":2,"parameterNumberName":"U-component_of_WINDS"},"data":[0,0,0,0,0,0,0,0,0,0,0,0,0,0,0,0,0,0,0,0,0,0,0,0,0,0,0,0,0,0,0,0,0,0,0,0,0,0,0,0,0,0,0,0,0,0,0,0,0,0,0,0,0,0,0,0,0,0,2.6845,2.6846,0,2.6961,2.6963,2.6964,2.6972,2.697,2.6969,2.6968,2.7088,2.7092,2.7096,0,0,0,0,0,0,0,0,0,0,0,0,0,2.6631,2.6635,2.6845,2.6847,2.6848,2.6961,2.6963,2.6964,2.6972,2.697,2.6969,2.6967,2.7086,2.7092,2.7097,0,0,0,0,0,0,0,0,0,0,0,0,0,2.6733,2.6636,2.6845,2.6865,2.6868,2.6961,2.6963,2.6965,2.6972,2.697,2.6968,2.6966,2.7085,2.7091,2.7098,2.7178,0,0,2.7118,2.7121,0,0,0,0,0,0,0,0,2.6727,2.6741,2.6861,2.6864,2.6868,2.695,2.6931,2.7036,2.6973,2.6933,2.6968,2.6965,2.7044,2.7053,2.708,2.7183,2.7188,2.7118,2.7122,2.7125,2.7127,0,0,0,0,0,0,0,2.672,2.6736,2.6891,2.6863,2.6867,2.6869,2.6881,2.6951,2.6998,2.6936,2.6937,2.6951,2.7045,2.7073,2.7082,2.719,2.7118,2.7124,2.7128,2.7131,2.7365,2.7367,0,0,0,0,0,0,2.6709,2.673,2.6887,2.6895,2.6791,2.6874,2.6888,2.6926,2.6997,2.7006,2.6952,2.695,2.7063,2.7075,2.7087,2.7184,2.7125,2.7131,2.7135,2.7363,2.7365,2.7368,0,0,0,0,0,0,2.6704,2.6723,2.6883,2.6813,2.6833,2.688,2.6922,2.6929,2.6957,2.7009,2.7018,2.6972,2.7062,2.7077,2.7155,2.7188,2.7134,2.714,2.736,2.7363,2.7366,2.738,0,0,0,0,0,0,2.6698,2.6721,2.6752,2.6813,2.6837,2.6948,2.6924,2.6933,2.6968,2.6967,2.703,2.7039,2.7061,2.7145,2.7161,2.7197,2.7146,2.7357,2.7361,2.7365,2.7377,2.7384,2.7389,0,0,0,0,0,2.669,2.6751,2.6753,2.6772,2.6876,2.695,2.6964,2.6988,2.6971,2.7002,2.7036,2.7037,2.7182,2.7153,2.7171,2.7209,2.7355,2.736,2.7365,2.7374,2.7382,2.7389,0,0,0,0,0,0,2.6693,2.676,2.6763,2.6845,2.6892,2.6951,2.6991,2.6996,2.7049,2.7046,2.7075,2.7089,2.7165,2.7195,2.7161,2.729,2.7267,2.7276,2.7267,2.7275,2.7282,2.7272,2.7151,0,0,0,0,0,2.6703,2.6758,2.6813,2.6881,2.6904,2.6944,2.6977,2.6992,2.7042,2.7062,2.7101,2.7149,2.7206,2.7243,2.7298,2.7382,2.7395,2.7417,2.7423,2.7428,2.7435,2.7481,2.7491,2.7384,2.7384,2.7384,0,0,2.6725,2.6768,2.6801,2.6883,2.6921,2.6976,2.6961,2.702,2.7062,2.7071,2.7146,2.7177,2.7233,2.7313,2.7351,2.7341,2.7468,2.7435,2.7438,2.7442,2.7487,2.7497,2.7506,2.7388,2.7387,2.7387,0,0,2.6792,2.6831,2.6891,2.6929,2.6987,2.7013,2.7027,2.7086,2.7107,2.7182,2.719,2.7241,2.7338,2.7377,2.741,2.7492,2.7495,2.751,2.7542,2.7586,2.7594,2.7602,2.763,2.764,2.7517,2.7517,2.7517,0,2.6811,2.6896,2.6921,2.6981,2.7016,2.7027,2.7088,2.7124,2.7197,2.7221,2.7209,2.7331,2.7369,2.7459,2.7479,2.7505,2.7522,2.7502,2.7591,2.7599,2.7606,2.7633,2.7644,2.7518,2.7518,2.7518,2.7518,0,2.6916,2.6974,2.7016,2.7085,2.7126,2.7186,2.722,2.7259,2.727,2.7298,2.7374,2.7421,2.7485,2.7508,2.7521,2.76,2.7591,2.7585,2.7562,2.7617,2.7643,2.7654,2.752,2.752,2.7519,2.7519,0,0,2.6987,2.707,2.7084,2.7116,2.718,2.7226,2.7287,2.7349,2.7381,2.7431,2.7482,2.7564,2.7558,2.7596,2.7613,2.7652,2.7713,2.764,2.7642,2.7651,2.7801,2.7805,2.7816,2.7716,2.7718,2.7719,2.7796,0,2.706,2.7167,2.7192,2.7284,2.7338,2.7349,2.7402,2.7448,2.7475,2.7525,2.7556,2.7613,2.7602,2.7624,2.7663,2.7697,2.7743,2.7692,2.7763,2.7765,2.7746,2.783,2.7834,2.7904,2.7807,2.7808,2.781,0,2.7159,2.7211,2.7308,2.7365,2.7389,2.7436,2.7495,2.7543,2.7595,2.7612,2.7653,2.7667,2.773,2.7705,2.7793,2.7757,2.7788,2.7809,2.7813,2.7819,2.7789,2.7837,2.7927,2.7937,2.7826,2.7825,2.7824,0,2.7199,2.7293,2.7363,2.739,2.7459,2.7492,2.7522,2.7572,2.7608,2.766,2.7684,2.7743,2.7775,2.782,2.7849,2.7828,2.7934,2.7912,2.7949,2.7949,2.797,2.7968,2.8064,2.7992,2.7992,2.7992,2.7992,0,2.7277,2.7335,2.7382,2.7425,2.7491,2.752,2.7584,2.7615,2.766,2.7709,2.7723,2.7769,2.7805,2.7856,2.7879,2.7947,2.7962,2.7978,2.7983,2.7975,2.7973,2.7995,2.799,2.7995,2.7994,2.7994,2.7993,0,2.7331,2.7365,2.7442,2.7501,2.7517,2.7563,2.7614,2.7656,2.7685,2.7747,2.7763,2.7807,2.7868,2.7901,2.7978,2.7994,2.8069,2.8073,2.8051,2.8053,2.8089,2.8084,2.8201,2.8217,2.8136,2.8137,2.8137,0,2.7377,2.7423,2.7487,2.7521,2.7551,2.7606,2.7642,2.7673,2.7711,2.7773,2.7808,2.787,2.792,2.8017,2.8056,2.8114,2.8118,2.8155,2.8127,2.8118,2.8117,2.8113,2.8117,2.8159,2.816,2.8161,2.8161,0,2.7456,2.747,2.7522,2.7581,2.7624,2.7671,2.7718,2.7745,2.7784,2.7825,2.7887,2.7927,2.8005,2.8065,2.8127,2.8158,2.8166,2.817,2.8182,2.8174,2.8159,2.8166,2.8063,2.8167,2.8166,2.8166,2.8165,2.8165,2.7507,2.7547,2.7598,2.7656,2.7695,2.7738,2.778,2.7814,2.7866,2.7932,2.7947,2.8012,2.8063,2.8147,2.818,2.8232,2.8225,2.8242,2.8246,2.8249,2.8249,2.8152,2.8243,2.8243,2.8243,2.8243,2.8243,0,2.7584,2.7618,2.7671,2.7736,2.7781,2.7785,2.7837,2.7875,2.7932,2.7979,2.8028,2.81,2.8159,2.8203,2.8263,2.8296,2.8301,2.831,2.8307,2.8314,2.8253,2.8236,2.8305,2.8305,2.8305,2.8305,2.8305,2.8305,2.7629,2.7698,2.7719,2.7806,2.784,2.7904,2.7933,2.7973,2.8011,2.809,2.8139,2.8167,2.8213,2.8277,2.8331,2.8343,2.8364,2.8372,2.8384,2.8326,2.8319,2.8312,2.8297,2.8377,2.8377,2.8441,2.8442,2.8442]},{"header":{"parameterUnit":"m.s-1","parameterCategory":1,"la1":30.2991,"la2":30.254,"lo1":-89.0895,"lo2":-89.0444,"dy":0.0017,"dx":0.0017,"nx":28,"ny":28,"refTime":"2025-07-13T09:00:00:Z","depth":0,"parameterNumber":3,"parameterNumberName":"V-component_of_WINDS"},"data":[0,0,0,0,0,0,0,0,0,0,0,0,0,0,0,0,0,0,0,0,0,0,0,0,0,0,0,0,0,0,0,0,0,0,0,0,0,0,0,0,0,0,0,0,0,0,0,0,0,0,0,0,0,0,0,0,0,0,2.8442,2.8441,0,2.8378,2.8377,2.8376,2.8348,2.8348,2.8348,2.8348,2.8274,2.8272,2.827,0,0,0,0,0,0,0,0,0,0,0,0,0,2.8533,2.8531,2.8442,2.8441,2.8441,2.8378,2.8377,2.8376,2.8348,2.8348,2.8348,2.8348,2.8275,2.8272,2.827,0,0,0,0,0,0,0,0,0,0,0,0,0,2.8483,2.8531,2.8442,2.8419,2.8416,2.8378,2.8377,2.8376,2.8348,2.8348,2.8348,2.8348,2.8276,2.8273,2.8269,2.8247,0,0,2.826,2.8259,0,0,0,0,0,0,0,0,2.8486,2.848,2.8423,2.8421,2.8418,2.8371,2.8382,2.8332,2.8348,2.8374,2.8348,2.8348,2.8306,2.83,2.8287,2.8243,2.824,2.826,2.8258,2.8256,2.8256,0,0,0,0,0,0,0,2.849,2.8483,2.8416,2.8423,2.8419,2.8409,2.8403,2.8372,2.8339,2.8371,2.8369,2.8362,2.8304,2.829,2.8285,2.8239,2.826,2.8257,2.8255,2.8254,2.8172,2.8171,0,0,0,0,0,0,2.8498,2.8486,2.8418,2.8415,2.8453,2.8408,2.84,2.8386,2.834,2.8333,2.8362,2.8361,2.8296,2.8289,2.8283,2.8253,2.8256,2.8253,2.8252,2.8172,2.8172,2.8171,0,0,0,0,0,0,2.85,2.8492,2.8421,2.845,2.844,2.8406,2.839,2.8384,2.8371,2.8333,2.8326,2.8355,2.8296,2.8287,2.8256,2.825,2.8252,2.8249,2.8172,2.8172,2.8171,2.8193,0,0,0,0,0,0,2.8503,2.8493,2.8486,2.845,2.8438,2.8398,2.839,2.8383,2.8367,2.8365,2.8324,2.8317,2.8295,2.8261,2.8253,2.8245,2.8247,2.8173,2.8172,2.8172,2.8193,2.8193,2.8194,0,0,0,0,0,2.8506,2.8493,2.8486,2.8478,2.8429,2.8398,2.8391,2.8368,2.8366,2.8358,2.8333,2.8319,2.8252,2.8258,2.8249,2.824,2.8173,2.8172,2.8172,2.8192,2.8193,2.8194,0,0,0,0,0,0,2.8527,2.8488,2.848,2.8455,2.8431,2.8393,2.8382,2.837,2.8343,2.8342,2.8312,2.8303,2.8274,2.8254,2.8262,2.8215,2.8211,2.8208,2.823,2.823,2.8231,2.8236,2.8244,0,0,0,0,0,2.853,2.851,2.8476,2.8457,2.8446,2.8416,2.8401,2.8386,2.8358,2.8347,2.832,2.8291,2.8263,2.8245,2.8218,2.8189,2.8179,2.8179,2.8179,2.818,2.8178,2.816,2.8159,2.8169,2.8169,2.8169,0,0,2.8533,2.8509,2.8498,2.8461,2.844,2.8418,2.8407,2.8384,2.8367,2.8342,2.8312,2.8291,2.8257,2.8227,2.8213,2.8209,2.8173,2.8179,2.818,2.8177,2.8159,2.8158,2.8157,2.8168,2.8169,2.8169,0,0,2.8529,2.8509,2.8492,2.8471,2.8441,2.8421,2.8417,2.8382,2.8368,2.8338,2.8318,2.8296,2.8249,2.8225,2.8207,2.8193,2.8178,2.8185,2.8187,2.817,2.817,2.8169,2.8163,2.8161,2.8183,2.8183,2.8183,0,2.8536,2.8505,2.8483,2.8462,2.8445,2.8424,2.8405,2.8385,2.8346,2.8334,2.8331,2.8272,2.8247,2.8211,2.8208,2.8194,2.8187,2.8189,2.8172,2.8171,2.817,2.8163,2.8161,2.8184,2.8184,2.8184,2.8184,0,2.8515,2.8494,2.8483,2.8448,2.843,2.841,2.8383,2.8366,2.8352,2.8332,2.83,2.827,2.8236,2.8226,2.8211,2.8187,2.8186,2.8178,2.8173,2.817,2.8164,2.8161,2.8185,2.8185,2.8185,2.8184,0,0,2.8522,2.8477,2.8473,2.8457,2.8421,2.8403,2.838,2.835,2.8336,2.8309,2.8288,2.8249,2.8242,2.8221,2.8202,2.8188,2.8177,2.8181,2.818,2.8181,2.8148,2.8154,2.8152,2.8168,2.8167,2.8167,2.8151,0,2.8512,2.8475,2.8454,2.8424,2.8402,2.8382,2.8362,2.8337,2.8317,2.8294,2.8271,2.8244,2.8236,2.8224,2.8208,2.8182,2.817,2.8183,2.8145,2.8144,2.8155,2.8149,2.8155,2.8141,2.8148,2.8148,2.8147,0,2.8496,2.8472,2.8441,2.8408,2.8398,2.8381,2.835,2.833,2.8299,2.8286,2.8263,2.8245,2.8218,2.8216,2.8176,2.8186,2.8169,2.8153,2.8152,2.8147,2.8145,2.8143,2.8136,2.8134,2.8143,2.8144,2.8144,0,2.8503,2.8463,2.8439,2.8426,2.8387,2.8375,2.8358,2.8328,2.831,2.8283,2.8271,2.8239,2.8222,2.8197,2.817,2.8171,2.8133,2.8128,2.8119,2.8119,2.8111,2.8112,2.8101,2.8101,2.8101,2.8102,2.8102,0,2.8494,2.8476,2.8442,2.8427,2.8405,2.838,2.8358,2.8338,2.8312,2.8291,2.827,2.825,2.8216,2.8191,2.8169,2.8139,2.8131,2.8118,2.8112,2.812,2.8121,2.8108,2.8108,2.8101,2.8101,2.8101,2.8101,0,2.8499,2.8476,2.8448,2.8414,2.8405,2.839,2.8359,2.8342,2.8322,2.8295,2.8287,2.8254,2.8223,2.8194,2.8152,2.8138,2.8107,2.81,2.8118,2.8115,2.8107,2.8108,2.8087,2.8082,2.8086,2.8086,2.8086,0,2.8495,2.848,2.8445,2.8431,2.8414,2.8391,2.8374,2.8348,2.8331,2.8295,2.8282,2.825,2.8224,2.8175,2.8145,2.8113,2.8104,2.8099,2.8099,2.8107,2.8103,2.8104,2.8102,2.81,2.81,2.81,2.81,0,2.8489,2.8479,2.8456,2.8429,2.841,2.8387,2.8363,2.8351,2.832,2.8301,2.8271,2.8251,2.8209,2.8177,2.8142,2.812,2.8104,2.81,2.8096,2.8103,2.8114,2.8107,2.8119,2.8101,2.8101,2.8101,2.81,2.81,2.8488,2.8474,2.8448,2.8422,2.8402,2.838,2.8363,2.8341,2.8317,2.8283,2.8268,2.8237,2.8205,2.8156,2.8135,2.8109,2.8105,2.8099,2.8097,2.8096,2.8098,2.8119,2.8102,2.8102,2.8102,2.8102,2.8102,0,2.8481,2.8463,2.8441,2.8409,2.8389,2.8378,2.8351,2.8334,2.8308,2.8281,2.8256,2.8221,2.819,2.8158,2.8124,2.8109,2.81,2.8101,2.8101,2.8096,2.8103,2.811,2.8108,2.8108,2.8108,2.8108,2.8108,2.8108,2.8475,2.8451,2.8437,2.8401,2.8382,2.8354,2.8339,2.8318,2.8296,2.8259,2.8234,2.8215,2.8185,2.8149,2.8119,2.811,2.8098,2.81,2.8089,2.8096,2.8096,2.8095,2.8102,2.8098,2.8098,2.8084,2.8084,2.8084]}]]